Weather Roundup
Issued by NWS Springfield, MO

Home | Current Version | Previous Version | Text Only | Print | Product List | Glossary On
Versions: 1 2 3 4 5 6 7 8 9 10 11 12 13 14 15 16 17 18 19 20 21 22 23 24 25 26 27 28 29 30 31 32 33 34 35 36 37 38 39 40 41 42 43 44 45 46 47 48 49 50
000
NZUS99 KSGF 270007
HRRSGF

HOURLY WEATHER
NATIONAL WEATHER SERVICE SPRINGFIELD MO
600 PM CST SUN FEB 26 2017

......SGF CWA......

CITY           SKY/WX    TMP DP  RH WIND       PRES   REMARKS
SPRINGFIELD    CLOUDY    42  33  70 SE10      29.97S
6HR MIN TEMP:  36; 6HR MAX TEMP:  42; 6HR PCP:  0.05;

JOPLIN         CLOUDY    43  34  70 E7        29.97R
6HR MIN TEMP:  40; 6HR MAX TEMP:  44; 6HR PCP:  0.01;

WEST PLAINS    CLOUDY    48  22  35 SE9       30.04R
6HR MIN TEMP:  45; 6HR MAX TEMP:  49;

ROLLA          MIX PCPN  37  35  92 S6        30.03R WCI  32
6HR MIN TEMP:  37; 6HR MAX TEMP:  45; 6HR PCP:  0.01;

OSAGE BEACH    LGT RAIN  38  37  97 SE3       30.05R
BRANSON        CLOUDY    46  25  42 E8        30.00R

......SURROUNDING SGF CWA......

CITY           SKY/WX    TMP DP  RH WIND       PRES   REMARKS
CHANUTE        CLEAR     47  29  49 SE6       29.96R
PARSONS        CLEAR     48  33  56 VRB3      29.96R
COFFEYVILLE    CLEAR     50  30  46 E6        29.95R
EMPORIA        CLEAR     47  26  44 SE6       29.93R
GROVE OK       CLOUDY    48  34  57 E6        29.96R
ROGERS AR      CLOUDY    46  29  51 E7        29.97R
SILOAM SPRINGS CLOUDY    50  27  40 S8        29.95R
HARRISON AR    CLOUDY    47  26  44 E3        29.99R
NEAR YELLVILLE CLOUDY    50  25  37 CALM      29.98S

......KANSAS AND MISSOURI......

CITY           SKY/WX    TMP DP  RH WIND       PRES   REMARKS
KANSAS CTY INT PTCLDY    43  25  49 S9        29.96R
DOWNTOWN KC    CLEAR     48  30  49 S9        29.97R
COLUMBIA       CLOUDY    42  35  76 S12       30.02S
SEDALIA        CLOUDY    42  35  76 S10       30.02R
ST JOSEPH      CLEAR     47  24  40 SW6       29.95R
ST LOUIS       CLOUDY    44  31  60 S12       30.08S
SPIRIT OF STL  CLOUDY    43  33  68 S6        30.07S
KIRKSVILLE     CLEAR     43  21  41 S8        29.98R
WICHITA        PTCLDY    50  24  36 N6        29.92R
TOPEKA         CLEAR     51  24  34 CALM      29.94R
OLATHE         PTCLDY    45  35  68 SE9       29.97R

......TENNESSEE......

CITY           SKY/WX    TMP DP  RH WIND       PRES   REMARKS
MEMPHIS        MOCLDY    60  22  23 SE6       30.03F
NASHVILLE      CLOUDY    51  19  28 SE5       30.14F

......ARKANSAS.......

CITY           SKY/WX    TMP DP  RH WIND       PRES   REMARKS
FAYETTEVILLE   CLOUDY    49  28  44 S3        29.96R
FT SMITH       CLOUDY    52  32  46 NE7       29.96R
LITTLE ROCK    TSTM      55  35  47 CALM      30.01R

......OKLAHOMA.......

CITY           SKY/WX    TMP DP  RH WIND       PRES   REMARKS
TULSA          MOCLDY    56  34  43 S6        29.90R
PONCA CITY     CLEAR     55  27  34 CALM      29.91R
MCALESTER      CLOUDY    55  34  45 SE5       29.91S
OKLAHOMA CITY  CLOUDY    55  34  45 S5        29.89R

......IOWA............

CITY           SKY/WX    TMP DP  RH WIND       PRES   REMARKS
DES MOINES     PTCLDY    41  20  43 N7        29.97R
QUAD CITIES    CLOUDY    46  27  47 SW12      29.96R

......ILLINOIS........

CITY           SKY/WX    TMP DP  RH WIND       PRES   REMARKS
QUINCY         PTCLDY    43  22  43 S9        30.01R
CHICAGO        MOCLDY    46  21  37 SW13G20   29.95R




USA.gov is the U.S. government's official web portal to all federal, state and local government web resources and services.